Regional Weather Roundup
Issued by NWS State College, PA

Home | Current Version | Previous Version | Text Only | Print | Product List | Glossary On
Versions: 1 2 3 4 5 6 7 8 9 10 11 12 13 14 15 16 17 18 19 20 21 22 23 24 25 26 27 28 29 30 31 32 33 34 35 36 37 38 39 40 41 42 43 44 45 46 47 48 49 50
000
ASUS41 KCTP 291003
RWRCTP

REGIONAL WEATHER ROUNDUP
NATIONAL WEATHER SERVICE STATE COLLEGE PA
600 AM EDT FRI AUG 29 2014

Note: "fair" indicates few or no clouds below 12,000 feet with no
significant weather and/or obstructions to visibility.

* = STATION THAT DOES NOT REPORT PRECIPITATION /E.G. RAIN...SNOW...ETC/
    THUNDER OR FOG.

PAZ002>004-007>009-013>016-020>023-029>032-291100-
WESTERN PENNSYLVANIA

CITY           SKY/WX    TMP DP  RH WIND       PRES   REMARKS
ERIE           PTCLDY    55  48  77 CALM      30.16R
MEADVILLE      CLEAR     49  46  90 CALM      30.18R
FRANKLIN*      CLOUDY    46  45  93 NE3       30.19R VSB 1/4
NEW CASTLE     FAIR      45  45 100 CALM      30.19R
BEAVER COUNTY  NOT AVBL
BUTLER*        CLEAR     46  45  93 NE5       30.18S
PITTSBURGH INT PTCLDY    51  49  92 CALM      30.15S
PITTSBURGH     CLEAR     54  50  86 E5        30.15S
INDIANA*       PTCLDY    50  48  93 CALM      30.21S
LATROBE        CLEAR     50  50 100 CALM      30.17S
WASHINGTON CO* MOCLDY    46  45  93 CALM      30.16R
$$

PAZ004>006-010>012-017>019-024>028-033>037-041-042-045-046-049>053-291100-
CENTRAL PENNSYLVANIA

CITY           SKY/WX    TMP DP  RH WIND       PRES   REMARKS
BRADFORD       CLEAR     40  38  93 CALM      30.19R
DUBOIS         PTCLDY    46  45  96 E6        30.19R
CLEARFIELD     FOG       44  44 100 CALM      30.20R VSB 1/2
JOHNSTOWN      CLEAR     49  47  93 SW3       30.19R
ALTOONA        CLEAR     49  48  97 NW3       30.20R
STATE COLLEGE  CLEAR     48  46  93 CALM      30.20R
WILLIAMSPORT   PTCLDY    50  47  89 NW3       30.17R
SELINSGROVE    PTCLDY    49  47  93 CALM      30.19R
FT INDIANTOWN  CLEAR     52  51  97 S3        30.17R
CAPITAL CITY   CLEAR     53  49  86 W5        30.17R
HARRISBURG     MOCLDY    57  51  80 NE3       30.16R
YORK           CLEAR     48  46  93 CALM      30.16R
$$

PAZ038>040-043-044-047-048-054-055-060>062-067>071-291100-
EASTERN PENNSYLVANIA

CITY           SKY/WX    TMP DP  RH WIND       PRES   REMARKS
SCRANTON       PTCLDY    50  47  89 CALM      30.17R
MOUNT POCONO   CLEAR     52  46  80 VRB5      30.16R
ALLENTOWN      CLEAR     52  48  86 W3        30.16R
QUAKERTOWN*    SUNNY     48  48 100 CALM      30.16R
READING        CLEAR     54  49  83 CALM      30.15R
LANCASTER      CLEAR     51  47  86 NW6       30.16R
COATESVILLE    SUNNY     55  54  94 N5        30.16R
POTTSTOWN      PTCLDY    52  49  89 CALM      30.17R
BLUE BELL      PTCLDY    50  48  93 CALM      30.14R
DOYLESTOWN     CLEAR     55  50  83 NE5       30.14R
WILLOW GROVE   NOT AVBL
NORTH PHILA    CLEAR     59  49  69 N6        30.15R
PHILADELPHIA   MOCLDY    62  49  62 N8        30.14R
$$


USA.gov is the U.S. government's official web portal to all federal, state and local government web resources and services.